• In Deutschland
  • Länderverzeichnis
  • Für 7 Tage
  • Wassertemperatur
  • Satellitenkarten
  • Wetterkarte
  • Widgets
  • user-avatar
    Anmelden

    Stündliche Wetter Eppingen

    Heute, 19 Februar, Montag

    Zeit Temperatur Niederschläge Wind Luftdruck Luftfeuchtigkeit
    00:00 0°C° 0 mm 1 m/S 749 mmHg 85%
    01:00 0°C° 0 mm 1 m/S 749 mmHg 86%
    02:00 0°C° 0 mm 1 m/S 749 mmHg 87%
    03:00 -1°C° 0 mm 1 m/S 748 mmHg 87%
    04:00 -1°C° 0 mm 1 m/S 748 mmHg 88%
    05:00 -1°C° 0 mm 1 m/S 748 mmHg 87%
    06:00 -1°C° 0 mm 1 m/S 748 mmHg 87%
    07:00 -1°C° 0 mm 1 m/S 747 mmHg 86%
    08:00 0°C° 0 mm 1 m/S 747 mmHg 82%
    09:00 +1°C° 0 mm 1 m/S 747 mmHg 77%
    10:00 -1°C° 0 mm 2 m/S 747 mmHg 72%
    11:00 +2°C° 0 mm 1 m/S 746 mmHg 67%
    12:00 +4°C° 0 mm 1 m/S 746 mmHg 63%
    13:00 +5°C° 0 mm 1 m/S 746 mmHg 58%
    14:00 +5°C° 0 mm 1 m/S 745 mmHg 58%
    15:00 +5°C° 0 mm 1 m/S 745 mmHg 58%
    16:00 +5°C° 0 mm 1 m/S 745 mmHg 58%
    17:00 +4°C° 0 mm 1 m/S 745 mmHg 62%
    18:00 +3°C° 0 mm 1 m/S 744 mmHg 67%
    19:00 +1°C° 0 mm 0 m/S 744 mmHg 72%
    20:00 0°C° 0 mm 0 m/S 744 mmHg 73%
    21:00 0°C° 0 mm 0 m/S 744 mmHg 75%
    22:00 0°C° 0 mm 0 m/S 744 mmHg 76%
    23:00 0°C° 0 mm 0 m/S 744 mmHg 77%

    Morgen, 20 Februar, Dienstag

    Zeit Temperatur Niederschläge Wind Luftdruck Luftfeuchtigkeit
    00:00 -1°C° 0 mm 0 m/S 744 mmHg 78%
    01:00 -1°C° 0 mm 0 m/S 744 mmHg 78%
    02:00 -1°C° 0 mm 0 m/S 744 mmHg 79%
    03:00 -1°C° 0 mm 0 m/S 743 mmHg 79%
    04:00 -1°C° 0 mm 0 m/S 743 mmHg 79%
    05:00 -1°C° 0 mm 0 m/S 743 mmHg 80%
    06:00 -1°C° 0 mm 0 m/S 743 mmHg 80%
    07:00 -2°C° 0 mm 0 m/S 743 mmHg 81%
    08:00 0°C° 0 mm 1 m/S 743 mmHg 76%
    09:00 +1°C° 0 mm 1 m/S 743 mmHg 70%
    10:00 +3°C° 0 mm 1 m/S 743 mmHg 65%
    11:00 +3°C° 0 mm 1 m/S 743 mmHg 61%
    12:00 +3°C° 0 mm 2 m/S 743 mmHg 57%
    13:00 +4°C° 0 mm 2 m/S 743 mmHg 53%
    14:00 +4°C° 0 mm 2 m/S 743 mmHg 54%
    15:00 +3°C° 0 mm 3 m/S 743 mmHg 55%
    16:00 +3°C° 0 mm 3 m/S 743 mmHg 57%
    17:00 +2°C° 0 mm 3 m/S 743 mmHg 62%
    18:00 +2°C° 0 mm 2 m/S 744 mmHg 68%
    19:00 +1°C° 0 mm 2 m/S 744 mmHg 73%
    20:00 +1°C° 0 mm 2 m/S 744 mmHg 75%
    21:00 +1°C° 0 mm 2 m/S 745 mmHg 77%
    22:00 +1°C° 0 mm 2 m/S 745 mmHg 78%
    23:00 -1°C° 0 mm 2 m/S 745 mmHg 81%

    übermorgen, 21 Februar, Mittwoch

    Zeit Temperatur Niederschläge Wind Luftdruck Luftfeuchtigkeit
    00:00 -1°C° 0 mm 2 m/S 745 mmHg 83%
    01:00 -2°C° 0 mm 3 m/S 746 mmHg 85%
    02:00 -2°C° 0 mm 3 m/S 746 mmHg 86%
    03:00 -2°C° 0 mm 3 m/S 746 mmHg 87%
    04:00 -2°C° 0 mm 3 m/S 746 mmHg 88%
    05:00 -2°C° 0 mm 3 m/S 746 mmHg 86%
    06:00 -2°C° 0 mm 3 m/S 746 mmHg 84%
    07:00 -2°C° 0 mm 3 m/S 746 mmHg 82%
    08:00 -2°C° 0 mm 3 m/S 746 mmHg 75%
    09:00 -1°C° 0 mm 3 m/S 746 mmHg 69%
    10:00 0°C° 0 mm 3 m/S 746 mmHg 63%
    11:00 0°C° 0 mm 4 m/S 746 mmHg 58%
    12:00 +1°C° 0 mm 4 m/S 746 mmHg 54%
    13:00 +3°C° 0 mm 4 m/S 746 mmHg 49%
    14:00 +3°C° 0 mm 4 m/S 746 mmHg 49%
    15:00 +3°C° 0 mm 4 m/S 745 mmHg 49%
    16:00 +3°C° 0 mm 4 m/S 745 mmHg 49%
    17:00 +1°C° 0 mm 4 m/S 745 mmHg 54%
    18:00 0°C° 0 mm 4 m/S 745 mmHg 59%
    19:00 -1°C° 0 mm 4 m/S 745 mmHg 63%
    20:00 -1°C° 0 mm 4 m/S 745 mmHg 65%
    21:00 -2°C° 0 mm 4 m/S 745 mmHg 66%
    22:00 -2°C° 0 mm 4 m/S 745 mmHg 68%
    23:00 -2°C° 0 mm 4 m/S 744 mmHg 69%

    22 Februar, Donnerstag

    Zeit Temperatur Niederschläge Wind Luftdruck Luftfeuchtigkeit
    00:00 -4°C° 0 mm 5 m/S 744 mmHg 70%
    01:00 -4°C° 0 mm 5 m/S 744 mmHg 71%
    02:00 -4°C° 0 mm 5 m/S 743 mmHg 72%
    03:00 -4°C° 0 mm 5 m/S 743 mmHg 72%
    04:00 -4°C° 0 mm 5 m/S 743 mmHg 73%
    05:00 -5°C° 0 mm 5 m/S 743 mmHg 72%
    06:00 -5°C° 0 mm 6 m/S 742 mmHg 72%
    07:00 -5°C° 0 mm 6 m/S 742 mmHg 71%
    08:00 -4°C° 0 mm 6 m/S 742 mmHg 68%
    09:00 -4°C° 0 mm 6 m/S 742 mmHg 64%
    10:00 -3°C° 0 mm 6 m/S 742 mmHg 60%
    11:00 -2°C° 0 mm 6 m/S 742 mmHg 57%
    12:00 -1°C° 0 mm 7 m/S 742 mmHg 54%
    13:00 0°C° 0 mm 7 m/S 741 mmHg 50%
    14:00 +1°C° 0 mm 6 m/S 741 mmHg 50%
    15:00 +1°C° 0 mm 6 m/S 741 mmHg 51%
    16:00 +1°C° 0 mm 6 m/S 741 mmHg 51%
    17:00 -1°C° 0 mm 6 m/S 741 mmHg 53%
    18:00 -2°C° 0 mm 6 m/S 741 mmHg 55%
    19:00 -3°C° 0 mm 6 m/S 741 mmHg 58%
    20:00 -3°C° 0 mm 6 m/S 741 mmHg 59%
    21:00 -2°C° 0 mm 5 m/S 741 mmHg 59%
    22:00 -4°C° 0 mm 5 m/S 741 mmHg 60%
    23:00 -4°C° 0 mm 5 m/S 741 mmHg 61%

    23 Februar, Freitag

    Zeit Temperatur Niederschläge Wind Luftdruck Luftfeuchtigkeit
    00:00 -4°C° 0 mm 5 m/S 741 mmHg 62%
    01:00 -5°C° 0 mm 5 m/S 741 mmHg 63%
    02:00 -5°C° 0 mm 5 m/S 741 mmHg 64%
    03:00 -5°C° 0 mm 5 m/S 741 mmHg 65%
    04:00 -5°C° 0 mm 5 m/S 740 mmHg 66%
    05:00 -5°C° 0 mm 5 m/S 740 mmHg 65%
    06:00 -5°C° 0 mm 5 m/S 741 mmHg 65%
    07:00 -5°C° 0 mm 5 m/S 741 mmHg 64%
    08:00 -5°C° 0 mm 5 m/S 741 mmHg 61%
    09:00 -5°C° 0 mm 5 m/S 741 mmHg 59%
    10:00 -4°C° 0 mm 5 m/S 741 mmHg 56%
    11:00 -2°C° 0 mm 5 m/S 741 mmHg 52%
    12:00 -1°C° 0 mm 5 m/S 741 mmHg 49%
    13:00 -1°C° 0 mm 5 m/S 741 mmHg 45%
    14:00 -1°C° 0 mm 5 m/S 741 mmHg 44%
    15:00 -1°C° 0 mm 5 m/S 741 mmHg 43%
    16:00 -1°C° 0 mm 5 m/S 741 mmHg 41%
    17:00 -2°C° 0 mm 5 m/S 742 mmHg 43%
    18:00 -4°C° 0 mm 5 m/S 742 mmHg 45%
    19:00 -5°C° 0 mm 5 m/S 743 mmHg 47%
    20:00 -6°C° 0 mm 5 m/S 743 mmHg 46%
    21:00 -6°C° 0 mm 5 m/S 744 mmHg 46%
    22:00 -7°C° 0 mm 5 m/S 744 mmHg 46%
    23:00 -7°C° 0 mm 5 m/S 744 mmHg 45%

    24 Februar, Samstag

    Zeit Temperatur Niederschläge Wind Luftdruck Luftfeuchtigkeit
    00:00 -7°C° 0 mm 4 m/S 744 mmHg 44%
    01:00 -7°C° 0 mm 4 m/S 745 mmHg 44%
    02:00 -8°C° 0 mm 4 m/S 745 mmHg 44%
    03:00 -8°C° 0 mm 4 m/S 745 mmHg 45%
    04:00 -8°C° 0 mm 4 m/S 745 mmHg 46%
    05:00 -8°C° 0 mm 4 m/S 745 mmHg 50%
    06:00 -7°C° 0 mm 3 m/S 746 mmHg 54%
    07:00 -7°C° 0 mm 3 m/S 746 mmHg 58%
    08:00 -8°C° 0 mm 4 m/S 746 mmHg 56%
    09:00 -7°C° 0 mm 4 m/S 747 mmHg 55%
    10:00 -7°C° 0 mm 4 m/S 747 mmHg 53%
    11:00 -5°C° 0 mm 4 m/S 747 mmHg 49%
    12:00 -5°C° 0 mm 4 m/S 747 mmHg 45%
    13:00 -4°C° 0 mm 4 m/S 746 mmHg 40%
    14:00 -4°C° 0 mm 4 m/S 746 mmHg 38%
    15:00 -4°C° 0 mm 4 m/S 746 mmHg 36%
    16:00 -4°C° 0 mm 4 m/S 746 mmHg 34%
    17:00 -5°C° 0 mm 4 m/S 746 mmHg 37%
    18:00 -6°C° 0 mm 3 m/S 746 mmHg 40%
    19:00 -6°C° 0 mm 3 m/S 746 mmHg 43%
    20:00 -7°C° 0 mm 3 m/S 747 mmHg 46%
    21:00 -7°C° 0 mm 3 m/S 747 mmHg 48%
    22:00 -6°C° 0 mm 2 m/S 747 mmHg 51%
    23:00 -6°C° 0 mm 2 m/S 747 mmHg 52%
    Mehr zeigen